Time,TemperatureF,DewpointF,PressureIn,WindDirection,WindDirectionDegrees,WindSpeedMPH,WindSpeedGustMPH,Humidity,HourlyPrecipIn,Conditions,Clouds,dailyrainin,SoftwareType,DateUTC
2013-04-14 00:03:00,40.0,33.0,-100.00,SW,215,4.0,6.0,76,0.00,,,-99.99,,2013-04-14 04:03:00,
2013-04-14 00:12:00,40.0,33.0,-100.00,SW,215,4.0,6.0,76,0.00,,,-99.99,,2013-04-14 04:12:00,
2013-04-14 00:23:00,40.0,33.0,-100.00,SW,215,4.0,6.0,78,0.00,,,-99.99,,2013-04-14 04:23:00,
2013-04-14 00:33:00,40.0,34.0,-100.00,SW,215,6.0,7.0,79,0.00,,,-99.99,,2013-04-14 04:33:00,
2013-04-14 00:43:00,40.0,34.0,-100.00,SSW,210,6.0,7.0,79,0.00,,,-99.99,,2013-04-14 04:43:00,
2013-04-14 00:53:00,40.0,34.0,-100.00,SW,220,6.0,9.0,79,0.00,,,-99.99,,2013-04-14 04:53:00,
2013-04-14 01:03:00,40.0,34.0,-100.00,SSW,205,6.0,9.0,79,0.00,,,-99.99,,2013-04-14 05:03:00,
2013-04-14 01:12:00,40.0,34.0,-100.00,SW,220,6.0,9.0,80,0.00,,,-99.99,,2013-04-14 05:12:00,
2013-04-14 01:22:00,40.0,35.0,-100.00,SW,225,6.0,8.0,81,0.00,,,-99.99,,2013-04-14 05:22:00,
2013-04-14 01:32:00,40.0,35.0,-100.00,SW,220,7.0,9.0,82,0.00,,,-99.99,,2013-04-14 05:32:00,
2013-04-14 01:42:00,40.0,35.0,-100.00,SW,225,7.0,8.0,82,0.00,,,-99.99,,2013-04-14 05:42:00,
2013-04-14 01:52:00,40.0,35.0,-100.00,SW,220,6.0,9.0,82,0.00,,,-99.99,,2013-04-14 05:52:00,
2013-04-14 02:02:00,40.0,35.0,-100.00,SW,235,4.0,9.0,83,0.00,,,-99.99,,2013-04-14 06:02:00,
2013-04-14 02:12:00,39.0,35.0,-100.00,SW,215,4.0,6.0,85,0.00,,,-99.99,,2013-04-14 06:12:00,
2013-04-14 02:22:00,39.0,35.0,-100.00,SW,215,4.0,6.0,85,0.00,,,-99.99,,2013-04-14 06:22:00,
2013-04-14 02:32:00,39.0,35.0,-100.00,SW,215,5.0,6.0,85,0.00,,,-99.99,,2013-04-14 06:32:00,
2013-04-14 02:42:00,39.0,35.0,-100.00,SW,230,5.0,6.0,85,0.00,,,-99.99,,2013-04-14 06:42:00,
2013-04-14 02:52:00,39.0,35.0,-100.00,SW,230,3.0,6.0,86,0.00,,,-99.99,,2013-04-14 06:52:00,
2013-04-14 03:02:00,38.0,35.0,-100.00,SW,235,3.0,4.0,86,0.00,,,-99.99,,2013-04-14 07:02:00,
2013-04-14 03:12:00,38.0,35.0,-100.00,SW,230,4.0,4.0,88,0.00,,,-99.99,,2013-04-14 07:12:00,
2013-04-14 03:22:00,37.0,35.0,-100.00,SW,235,3.0,4.0,88,0.00,,,-99.99,,2013-04-14 07:22:00,
2013-04-14 03:33:00,38.0,35.0,-100.00,SW,235,3.0,4.0,89,0.00,,,-99.99,,2013-04-14 07:33:00,
2013-04-14 03:42:00,37.0,35.0,-100.00,SW,235,2.0,4.0,90,0.00,,,-99.99,,2013-04-14 07:42:00,
2013-04-14 03:52:00,37.0,35.0,-100.00,SW,235,2.0,4.0,90,0.00,,,-99.99,,2013-04-14 07:52:00,
2013-04-14 04:03:00,37.0,35.0,-100.00,WSW,245,3.0,3.0,90,0.00,,,-99.99,,2013-04-14 08:03:00,
2013-04-14 04:12:00,37.0,35.0,-100.00,WSW,255,2.0,4.0,90,0.00,,,-99.99,,2013-04-14 08:12:00,
2013-04-14 04:22:00,37.0,35.0,-100.00,WSW,250,3.0,4.0,90,0.00,,,-99.99,,2013-04-14 08:22:00,
2013-04-14 04:32:00,38.0,35.0,-100.00,WNW,290,3.0,5.0,90,0.00,,,-99.99,,2013-04-14 08:32:00,
2013-04-14 04:42:00,38.0,35.0,-100.00,West,260,2.0,4.0,90,0.00,,,-99.99,,2013-04-14 08:42:00,
2013-04-14 04:52:00,37.0,35.0,-100.00,West,260,1.0,2.0,90,0.00,,,-99.99,,2013-04-14 08:52:00,
2013-04-14 05:03:00,37.0,35.0,-100.00,West,260,1.0,2.0,91,0.00,,,-99.99,,2013-04-14 09:03:00,
2013-04-14 05:12:00,37.0,35.0,-100.00,West,260,1.0,2.0,91,0.00,,,-99.99,,2013-04-14 09:12:00,
2013-04-14 05:22:00,37.0,35.0,-100.00,NW,320,1.0,2.0,91,0.00,,,-99.99,,2013-04-14 09:22:00,
2013-04-14 05:33:00,37.0,35.0,-100.00,WNW,300,1.0,2.0,92,0.00,,,-99.99,,2013-04-14 09:33:00,
2013-04-14 05:43:00,38.0,36.0,-100.00,North,0,2.0,4.0,92,0.00,,,-99.99,,2013-04-14 09:43:00,
2013-04-14 05:54:00,38.0,36.0,-100.00,NW,310,1.0,4.0,92,0.00,,,-99.99,,2013-04-14 09:54:00,
2013-04-14 06:03:00,38.0,36.0,-100.00,South,185,1.0,2.0,92,0.00,,,-99.99,,2013-04-14 10:03:00,
2013-04-14 06:12:00,38.0,36.0,-100.00,South,180,3.0,4.0,92,0.00,,,-99.99,,2013-04-14 10:12:00,
2013-04-14 06:23:00,38.0,36.0,-100.00,South,180,2.0,2.0,92,0.00,,,-99.99,,2013-04-14 10:23:00,
2013-04-14 06:33:00,38.0,36.0,-100.00,SW,215,1.0,2.0,92,0.00,,,-99.99,,2013-04-14 10:33:00,
2013-04-14 06:42:00,38.0,36.0,-100.00,WSW,245,1.0,1.0,92,0.00,,,-99.99,,2013-04-14 10:42:00,
2013-04-14 06:52:00,37.0,36.0,-100.00,WNW,300,0.0,1.0,92,0.00,,,-99.99,,2013-04-14 10:52:00,
2013-04-14 07:02:00,37.0,36.0,-100.00,WNW,300,0.0,1.0,92,0.00,,,-99.99,,2013-04-14 11:02:00,
2013-04-14 07:12:00,37.0,36.0,-100.00,SW,235,0.0,1.0,93,0.00,,,-99.99,,2013-04-14 11:12:00,
2013-04-14 07:22:00,37.0,36.0,-100.00,SW,235,0.0,0.0,94,0.00,,,-99.99,,2013-04-14 11:22:00,
2013-04-14 07:32:00,38.0,36.0,-100.00,SSE,150,0.0,1.0,94,0.00,,,-99.99,,2013-04-14 11:32:00,
2013-04-14 07:42:00,38.0,36.0,-100.00,SSE,150,0.0,1.0,94,0.00,,,-99.99,,2013-04-14 11:42:00,
2013-04-14 07:52:00,38.0,36.0,-100.00,ESE,110,1.0,1.0,94,0.00,,,-99.99,,2013-04-14 11:52:00,
2013-04-14 08:02:00,38.0,37.0,-100.00,East,95,1.0,2.0,94,0.00,,,-99.99,,2013-04-14 12:02:00,
2013-04-14 08:12:00,38.0,37.0,-100.00,East,95,1.0,2.0,94,0.00,,,-99.99,,2013-04-14 12:12:00,
2013-04-14 08:22:00,38.0,37.0,-100.00,East,95,1.0,2.0,94,0.00,,,-99.99,,2013-04-14 12:22:00,
2013-04-14 08:32:00,39.0,38.0,-100.00,NE,55,4.0,4.0,95,0.00,,,-99.99,,2013-04-14 12:32:00,
2013-04-14 08:42:00,39.0,38.0,-100.00,NE,50,5.0,6.0,95,0.00,,,-99.99,,2013-04-14 12:42:00,
2013-04-14 08:52:00,39.0,38.0,-100.00,NE,40,6.0,9.0,94,0.00,,,-99.99,,2013-04-14 12:52:00,
2013-04-14 09:02:00,40.0,37.0,-100.00,ENE,60,6.0,9.0,91,0.00,,,-99.99,,2013-04-14 13:02:00,
2013-04-14 09:12:00,40.0,36.0,-100.00,ENE,70,7.0,9.0,87,0.00,,,-99.99,,2013-04-14 13:12:00,
2013-04-14 09:22:00,40.0,35.0,-100.00,East,80,7.0,10.0,81,0.00,,,-99.99,,2013-04-14 13:22:00,
2013-04-14 09:33:00,41.0,34.0,-100.00,East,80,7.0,12.0,75,0.00,,,-99.99,,2013-04-14 13:33:00,
2013-04-14 09:42:00,42.0,33.0,-100.00,East,80,9.0,12.0,71,0.00,,,-99.99,,2013-04-14 13:42:00,
2013-04-14 09:52:00,41.0,33.0,-100.00,East,80,10.0,12.0,71,0.00,,,-99.99,,2013-04-14 13:52:00,
2013-04-14 10:02:00,42.0,33.0,-100.00,East,90,10.0,12.0,71,0.00,,,-99.99,,2013-04-14 14:02:00,
2013-04-14 10:12:00,41.0,33.0,-100.00,East,90,9.0,14.0,72,0.00,,,-99.99,,2013-04-14 14:12:00,
2013-04-14 10:22:00,41.0,32.0,-100.00,East,95,11.0,14.0,71,0.00,,,-99.99,,2013-04-14 14:22:00,
2013-04-14 10:32:00,41.0,33.0,-100.00,ESE,105,7.0,11.0,71,0.00,,,-99.99,,2013-04-14 14:32:00,
2013-04-14 10:42:00,41.0,33.0,-100.00,ESE,105,7.0,10.0,72,0.00,,,-99.99,,2013-04-14 14:42:00,
2013-04-14 10:52:00,41.0,33.0,-100.00,ESE,110,7.0,11.0,72,0.00,,,-99.99,,2013-04-14 14:52:00,
2013-04-14 11:02:00,41.0,33.0,-100.00,SE,125,6.0,7.0,72,0.00,,,-99.99,,2013-04-14 15:02:00,
2013-04-14 11:12:00,41.0,33.0,-100.00,ESE,110,6.0,7.0,73,0.00,,,-99.99,,2013-04-14 15:12:00,
2013-04-14 11:22:00,42.0,34.0,-100.00,ESE,115,6.0,8.0,73,0.00,,,-99.99,,2013-04-14 15:22:00,
2013-04-14 11:33:00,42.0,34.0,-100.00,ESE,105,9.0,10.0,73,0.00,,,-99.99,,2013-04-14 15:33:00,
2013-04-14 11:43:00,42.0,34.0,-100.00,ESE,105,9.0,10.0,73,0.00,,,-99.99,,2013-04-14 15:43:00,
2013-04-14 11:53:00,42.0,34.0,-100.00,ESE,105,9.0,10.0,73,0.00,,,-99.99,,2013-04-14 15:53:00,
2013-04-14 12:04:00,44.0,37.0,-100.00,East,100,9.0,12.0,73,0.00,,,-99.99,,2013-04-14 16:04:00,
2013-04-14 12:13:00,45.0,37.0,-100.00,ESE,110,10.0,12.0,72,0.00,,,-99.99,,2013-04-14 16:13:00,
2013-04-14 12:23:00,46.0,37.0,-100.00,East,95,11.0,12.0,70,0.00,,,-99.99,,2013-04-14 16:23:00,
2013-04-14 12:33:00,45.0,36.0,-100.00,ESE,120,11.0,14.0,70,0.00,,,-99.99,,2013-04-14 16:33:00,
2013-04-14 12:43:00,46.0,37.0,-100.00,ESE,110,8.0,12.0,72,0.00,,,-99.99,,2013-04-14 16:43:00,
2013-04-14 12:53:00,46.0,38.0,-100.00,ESE,105,9.0,12.0,72,0.00,,,-99.99,,2013-04-14 16:53:00,
2013-04-14 13:02:00,47.0,38.0,-100.00,East,100,11.0,14.0,70,0.00,,,-99.99,,2013-04-14 17:02:00,
2013-04-14 13:13:00,48.0,39.0,-100.00,East,90,9.0,12.0,70,0.00,,,-99.99,,2013-04-14 17:13:00,
2013-04-14 13:22:00,48.0,39.0,-100.00,East,90,9.0,12.0,70,0.00,,,-99.99,,2013-04-14 17:22:00,
2013-04-14 13:33:00,49.0,39.0,-100.00,ESE,120,8.0,15.0,67,0.00,,,-99.99,,2013-04-14 17:33:00,
2013-04-14 13:42:00,50.0,39.0,-100.00,East,100,12.0,17.0,66,0.00,,,-99.99,,2013-04-14 17:42:00,
2013-04-14 13:52:00,51.0,40.0,-100.00,East,80,10.0,15.0,66,0.00,,,-99.99,,2013-04-14 17:52:00,
2013-04-14 14:03:00,50.0,40.0,-100.00,East,85,14.0,17.0,67,0.00,,,-99.99,,2013-04-14 18:03:00,
2013-04-14 14:12:00,51.0,40.0,-100.00,East,80,14.0,17.0,66,0.00,,,-99.99,,2013-04-14 18:12:00,
2013-04-14 14:22:00,51.0,40.0,-100.00,East,90,13.0,20.0,65,0.00,,,-99.99,,2013-04-14 18:22:00,
2013-04-14 14:33:00,52.0,40.0,-100.00,SE,135,14.0,19.0,65,0.00,,,-99.99,,2013-04-14 18:33:00,
2013-04-14 14:43:00,52.0,40.0,-100.00,East,100,14.0,18.0,64,0.00,,,-99.99,,2013-04-14 18:43:00,
2013-04-14 14:52:00,52.0,41.0,-100.00,ESE,120,12.0,20.0,64,0.00,,,-99.99,,2013-04-14 18:52:00,
2013-04-14 15:04:00,53.0,40.0,-100.00,ESE,115,12.0,20.0,62,0.00,,,-99.99,,2013-04-14 19:04:00,
2013-04-14 15:12:00,53.0,41.0,-100.00,SE,125,14.0,19.0,63,0.00,,,-99.99,,2013-04-14 19:12:00,
2013-04-14 15:22:00,53.0,41.0,-100.00,ESE,110,14.0,18.0,63,0.00,,,-99.99,,2013-04-14 19:22:00,
2013-04-14 15:32:00,54.0,42.0,-100.00,East,100,16.0,21.0,63,0.00,,,-99.99,,2013-04-14 19:32:00,
2013-04-14 15:42:00,54.0,42.0,-100.00,ESE,115,16.0,21.0,63,0.00,,,-99.99,,2013-04-14 19:42:00,
2013-04-14 15:52:00,54.0,42.0,-100.00,ESE,110,13.0,17.0,62,0.00,,,-99.99,,2013-04-14 19:52:00,
2013-04-14 16:03:00,55.0,42.0,-100.00,ESE,110,15.0,22.0,62,0.00,,,-99.99,,2013-04-14 20:03:00,
2013-04-14 16:13:00,55.0,43.0,-100.00,ESE,110,14.0,19.0,62,0.00,,,-99.99,,2013-04-14 20:13:00,
2013-04-14 16:22:00,55.0,42.0,-100.00,ESE,105,15.0,21.0,61,0.00,,,-99.99,,2013-04-14 20:22:00,
2013-04-14 16:33:00,55.0,42.0,-100.00,ESE,105,15.0,21.0,61,0.00,,,-99.99,,2013-04-14 20:33:00,
2013-04-14 16:43:00,55.0,42.0,-100.00,East,90,18.0,21.0,60,0.00,,,-99.99,,2013-04-14 20:43:00,
2013-04-14 16:52:00,55.0,42.0,-100.00,East,95,16.0,19.0,61,0.00,,,-99.99,,2013-04-14 20:52:00,
2013-04-14 17:02:00,55.0,42.0,-100.00,ESE,110,17.0,22.0,61,0.00,,,-99.99,,2013-04-14 21:02:00,
2013-04-14 17:13:00,55.0,42.0,-100.00,ESE,115,12.0,19.0,61,0.00,,,-99.99,,2013-04-14 21:13:00,
2013-04-14 17:23:00,55.0,42.0,-100.00,ESE,115,16.0,22.0,61,0.00,,,-99.99,,2013-04-14 21:23:00,
2013-04-14 17:33:00,55.0,42.0,-100.00,ESE,120,16.0,19.0,62,0.00,,,-99.99,,2013-04-14 21:33:00,
2013-04-14 17:43:00,55.0,42.0,-100.00,ESE,110,15.0,21.0,61,0.00,,,-99.99,,2013-04-14 21:43:00,
2013-04-14 17:53:00,55.0,42.0,-100.00,ESE,115,16.0,20.0,62,0.00,,,-99.99,,2013-04-14 21:53:00,
2013-04-14 18:03:00,55.0,42.0,-100.00,ESE,105,16.0,22.0,61,0.00,,,-99.99,,2013-04-14 22:03:00,
2013-04-14 18:13:00,55.0,42.0,-100.00,ESE,115,13.0,21.0,62,0.00,,,-99.99,,2013-04-14 22:13:00,
2013-04-14 18:23:00,55.0,42.0,-100.00,ESE,115,13.0,21.0,62,0.00,,,-99.99,,2013-04-14 22:23:00,
2013-04-14 18:33:00,55.0,43.0,-100.00,ESE,105,11.0,21.0,62,0.00,,,-99.99,,2013-04-14 22:33:00,
2013-04-14 18:44:00,56.0,43.0,-100.00,ESE,115,12.0,17.0,62,0.00,,,-99.99,,2013-04-14 22:44:00,
2013-04-14 18:52:00,55.0,43.0,-100.00,ESE,115,14.0,21.0,61,0.00,,,-99.99,,2013-04-14 22:52:00,
2013-04-14 19:02:00,55.0,43.0,-100.00,ESE,115,14.0,21.0,61,0.00,,,-99.99,,2013-04-14 23:02:00,
2013-04-14 19:12:00,53.0,45.0,-100.00,ENE,75,14.0,17.0,73,0.00,,,-99.99,,2013-04-14 23:12:00,
2013-04-14 19:22:00,52.0,45.0,-100.00,East,80,16.0,19.0,75,0.00,,,-99.99,,2013-04-14 23:22:00,
2013-04-14 19:33:00,52.0,45.0,-100.00,East,80,14.0,20.0,77,0.00,,,-99.99,,2013-04-14 23:33:00,
2013-04-14 19:43:00,51.0,45.0,-100.00,East,80,13.0,19.0,78,0.00,,,-99.99,,2013-04-14 23:43:00,
2013-04-14 19:52:00,51.0,45.0,-100.00,ENE,75,14.0,20.0,79,0.00,,,-99.99,,2013-04-14 23:52:00,
2013-04-14 20:02:00,50.0,44.0,-100.00,East,80,16.0,19.0,79,0.00,,,-99.99,,2013-04-15 00:02:00,
2013-04-14 20:12:00,50.0,44.0,-100.00,East,80,13.0,19.0,79,0.00,,,-99.99,,2013-04-15 00:12:00,
2013-04-14 20:23:00,49.0,43.0,-100.00,ENE,75,13.0,17.0,80,0.00,,,-99.99,,2013-04-15 00:23:00,
2013-04-14 20:33:00,49.0,43.0,-100.00,East,90,12.0,17.0,80,0.00,,,-99.99,,2013-04-15 00:33:00,
2013-04-14 20:42:00,48.0,42.0,-100.00,East,95,14.0,19.0,81,0.00,,,-99.99,,2013-04-15 00:42:00,
2013-04-14 20:52:00,48.0,42.0,-100.00,East,95,14.0,19.0,81,0.00,,,-99.99,,2013-04-15 00:52:00,
2013-04-14 21:02:00,47.0,42.0,-100.00,East,85,13.0,19.0,82,0.00,,,-99.99,,2013-04-15 01:02:00,
2013-04-14 21:12:00,46.0,41.0,-100.00,East,85,14.0,21.0,82,0.00,,,-99.99,,2013-04-15 01:12:00,
2013-04-14 21:23:00,46.0,41.0,-100.00,East,85,11.0,16.0,84,0.00,,,-99.99,,2013-04-15 01:23:00,
2013-04-14 21:33:00,46.0,41.0,-100.00,East,80,12.0,15.0,85,0.00,,,-99.99,,2013-04-15 01:33:00,
2013-04-14 21:42:00,45.0,41.0,-100.00,East,85,14.0,16.0,85,0.00,,,-99.99,,2013-04-15 01:42:00,
2013-04-14 21:52:00,45.0,41.0,-100.00,East,80,14.0,17.0,85,0.00,,,-99.99,,2013-04-15 01:52:00,
2013-04-14 22:03:00,44.0,40.0,-100.00,East,85,14.0,18.0,85,0.00,,,-99.99,,2013-04-15 02:03:00,
2013-04-14 22:12:00,44.0,40.0,-100.00,East,80,14.0,17.0,86,0.00,,,-99.99,,2013-04-15 02:12:00,
2013-04-14 22:22:00,43.0,40.0,-100.00,East,85,12.0,16.0,88,0.00,,,-99.99,,2013-04-15 02:22:00,
2013-04-14 22:32:00,43.0,40.0,-100.00,East,85,13.0,17.0,88,0.00,,,-99.99,,2013-04-15 02:32:00,
2013-04-14 22:42:00,42.0,40.0,-100.00,East,85,10.0,14.0,88,0.00,,,-99.99,,2013-04-15 02:42:00,
2013-04-14 22:52:00,42.0,40.0,-100.00,East,85,10.0,14.0,88,0.00,,,-99.99,,2013-04-15 02:52:00,
2013-04-14 23:03:00,42.0,39.0,-100.00,ENE,75,7.0,12.0,89,0.00,,,-99.99,,2013-04-15 03:03:00,
2013-04-14 23:12:00,42.0,39.0,-100.00,ENE,75,7.0,10.0,89,0.00,,,-99.99,,2013-04-15 03:12:00,
2013-04-14 23:22:00,42.0,39.0,-100.00,ENE,65,7.0,11.0,90,0.00,,,-99.99,,2013-04-15 03:22:00,
2013-04-14 23:33:00,42.0,39.0,-100.00,ENE,65,7.0,11.0,90,0.00,,,-99.99,,2013-04-15 03:33:00,
2013-04-14 23:43:00,41.0,39.0,-100.00,ENE,75,7.0,11.0,91,0.00,,,-99.99,,2013-04-15 03:43:00,
2013-04-14 23:54:00,41.0,39.0,-100.00,ENE,75,7.0,9.0,92,0.00,,,-99.99,,2013-04-15 03:54:00,